Weather History for KDEN - January, 2014

Change the Weather History Date:

Thursday, January 16, 2014

  Actual Average Record
Temperature  
Mean Temperature 34 °F 31 °F  
Max Temperature 44 °F 44 °F 64 °F (1923)
Min Temperature 24 °F 18 °F -19 °F (1930)
Degree Days  
Heating Degree Days 31 34  
Month to date heating degree days 574 549  
Since 1 July heating degree days 3025 3017  
Cooling Degree Days 0 0  
Month to date cooling degree days 0 0  
Year to date cooling degree days 0 0  
Moisture  
Dew Point 15 °F    
Average Humidity 51    
Maximum Humidity 74    
Minimum Humidity 28    
Precipitation  
Precipitation 0.00 in 0.01 in 0.19 in (2001)
Month to date precipitation 0.48 0.21  
Year to date precipitation 0.48 0.21  
Snow  
Snow 0.00 in - - ()
Month to date snowfall 6.2  
Since 1 July snowfall 14.3  
Snow Depth 0.00 in    
Sea Level Pressure  
Sea Level Pressure 30.18 in    
Wind  
Wind Speed 10 mph (ESE)    
Max Wind Speed 21 mph    
Max Gust Speed 25 mph    
Visibility 10 miles    
Events      
T = Trace of Precipitation, MM = Missing Value Source: NWS Daily Summary

Daily Weather History Graph

Daily Weather History Graph

Search for Another Location

Airport or City:

Trip Planner

Search our weather history database for the weather conditions in past years. The results will help you decide how hot, cold, wet, or windy it might be!

Date:

Astronomy

Jan. 16, 2014 Rise Set
Actual Time 7:17 AM MST 4:59 PM MST
Civil Twilight 6:48 AM MST 5:29 PM MST
Nautical Twilight 6:14 AM MST 6:02 PM MST
Astronomical Twilight 5:42 AM MST 6:34 PM MST
Moon 5:53 PM MST (1/16) 7:12 AM MST (1/16)
Length of Visible Light 10h 40m
Length of Day
9h 41m
Full, 100% of the Moon is Illuminated
Jan 16
Full
Jan 23
Last Quarter
Jan 30
New
Feb 6
First Quarter
Feb 14
Full

Hourly Weather History & Observations

Time (MST) Temp. Windchill Dew Point Humidity Pressure Visibility Wind Dir Wind Speed Gust Speed Precip Events Conditions
12:53 AM 39.9 °F 31.4 °F 12.9 °F 33% 30.00 in 10.0 mi West 16.1 mph - N/A   Scattered Clouds
1:53 AM 37.9 °F 29.6 °F 12.9 °F 36% 30.03 in 10.0 mi West 13.8 mph - N/A   Scattered Clouds
2:53 AM 37.9 °F 30.0 °F 12.0 °F 35% 30.04 in 10.0 mi West 12.7 mph - N/A   Scattered Clouds
3:53 AM 37.9 °F 30.0 °F 10.0 °F 32% 30.04 in 10.0 mi West 12.7 mph - N/A   Scattered Clouds
4:53 AM 35.1 °F 27.4 °F 10.9 °F 37% 30.09 in 10.0 mi West 10.4 mph - N/A   Partly Cloudy
5:53 AM 32.0 °F 25.6 °F 12.0 °F 44% 30.14 in 10.0 mi ENE 6.9 mph - N/A   Scattered Clouds
6:53 AM 25.0 °F 16.3 °F 16.0 °F 69% 30.19 in 10.0 mi SSE 8.1 mph - N/A   Scattered Clouds
7:53 AM 25.0 °F 16.3 °F 17.1 °F 72% 30.20 in 10.0 mi SSE 8.1 mph - N/A   Mostly Cloudy
8:53 AM 30.0 °F 22.4 °F 19.9 °F 66% 30.22 in 10.0 mi SSE 8.1 mph - N/A   Mostly Cloudy
9:53 AM 35.1 °F 30.1 °F 18.0 °F 50% 30.20 in 10.0 mi ESE 5.8 mph - N/A   Mostly Cloudy
10:53 AM 37.9 °F 32.1 °F 17.1 °F 43% 30.20 in 10.0 mi ESE 8.1 mph - N/A   Mostly Cloudy
11:53 AM 39.9 °F 35.8 °F 15.1 °F 36% 30.17 in 10.0 mi Variable 5.8 mph - N/A   Mostly Cloudy
12:53 PM 44.1 °F 37.7 °F 14.0 °F 30% 30.12 in 10.0 mi NNE 12.7 mph - N/A   Mostly Cloudy
1:53 PM 43.0 °F 35.7 °F 14.0 °F 31% 30.13 in 10.0 mi NNE 15.0 mph - N/A   Mostly Cloudy
2:53 PM 43.0 °F 36.0 °F 14.0 °F 31% 30.14 in 10.0 mi North 13.8 mph - N/A   Mostly Cloudy
3:53 PM 41.0 °F 32.8 °F 14.0 °F 33% 30.17 in 10.0 mi North 16.1 mph - N/A   Mostly Cloudy
4:53 PM 37.0 °F 28.1 °F 15.1 °F 41% 30.22 in 10.0 mi North 15.0 mph - N/A   Mostly Cloudy
5:53 PM 33.1 °F 23.9 °F 17.1 °F 52% 30.25 in 10.0 mi NNE 12.7 mph - N/A   Scattered Clouds
6:53 PM 28.9 °F 21.9 °F 17.1 °F 61% 30.32 in 10.0 mi East 6.9 mph - N/A   Scattered Clouds
7:53 PM 28.9 °F 21.9 °F 18.0 °F 64% 30.33 in 10.0 mi SSE 6.9 mph - N/A   Mostly Cloudy
8:53 PM 30.9 °F - 16.0 °F 54% 30.30 in 10.0 mi Calm Calm - N/A   Mostly Cloudy
9:53 PM 28.9 °F 21.1 °F 18.0 °F 64% 30.30 in 10.0 mi South 8.1 mph - N/A   Mostly Cloudy
10:53 PM 28.9 °F 19.8 °F 18.0 °F 64% 30.28 in 10.0 mi South 10.4 mph - N/A   Mostly Cloudy
11:53 PM 24.1 °F 13.7 °F 18.0 °F 77% 30.27 in 10.0 mi South 10.4 mph - N/A   Scattered Clouds